Temp
-5 -5 -5 -5 -4 -4 -4 -4 -4 -5 -5 -6 -6 -6 -6 -6 -6 -5 -6 -5 -4 -4 -4 -5 -6 -5 -5 -5 -5 -5 -5 -5 -4 -4 -6 -4 -5 -5 -6 -6 -6 -6 -5 -6 -6
-5 -5 -5 -5 -4 -4 -4 -4 -4 -5 -5 -6 -6 -6 -6 -6 -6 -5 -5 -4 -5 -5 -5 -6 -5 -5 -5 -5 -4 -4 -4 -4 -4 -5 -5 -5 -6 -6 -6 -6 -7 -7 -7 -6 -7
-5 -5 -5 -4 -4 -4 -4 -4 -4 -4 -5 -6 -6 -6 -6 -6 -6 -5 -4 -5 -5 -5 -6 -5 -5 -5 -5 -5 -5 -4 -4 -4 -4 -4 -5 -4 -5 -5 -6 -6 -6 -6 -6 -7 -6
-5 -5 -5 -4 -4 -4 -4 -4 -4 -4 -5 -6 -5 -6 -6 -6 -6 -5 -5 -5 -5 -5 -5 -5 -5 -5 -5 -5 -5 -4 -4 -4 -4 -4 -5 -5 -5 -5 -5 -6 -6 -6 -6 -6 -6
-5 -5 -5 -4 -4 -4 -4 -4 -4 -4 -5 -5 -5 -6 -6 -5 -6 -4 -5 -5 -5 -6 -6 -6 -6 -6 -6 -6 -5 -3 -2 -4 -5 -4 -5 -5 -5 -5 -5 -5 -6 -6 -6 -6 -6
-5 -5 -5 -4 -4 -4 -4 -4 -4 -4 -4 -5 -5 -5 -5 -5 -5 -5 -6 -6 -6 -6 -5 -6 -5 -5 -6 -5 -6 -4 -3 -4 -5 -5 -5 -5 -5 -5 -5 -5 -5 -5 -5 -5 -5
-5 -5 -5 -4 -4 -4 -3 -3 -4 -4 -4 -5 -5 -5 -5 -5 -6 -5 -5 -5 -5 -5 -5 -5 -5 -6 -5 -6 -4 -4 -4 -5 -5 -5 -5 -5 -5 -4 -4 -5 -5 -5 -5 -5 -5
-5 -5 -4 -4 -4 -4 -3 -3 -3 -4 -4 -4 -5 -5 -5 -5 -5 -6 -5 -6 -6 -5 -6 -6 -6 -6 -6 -6 -6 -5 -5 -4 -5 -5 -6 -5 -5 -5 -5 -5 -5 -5 -5 -6 -6
-5 -4 -4 -4 -4 -3 -3 -3 -3 -4 -4 -4 -4 -4 -4 -4 -5 -5 -4 -5 -5 -6 -5 -5 -6 -6 -5 -5 -6 -6 -5 -5 -5 -5 -4 -5 -5 -5 -5 -5 -5 -5 -5 -6 -6
-4 -4 -4 -4 -3 -3 -3 -3 -3 -4 -4 -4 -4 -4 -4 -3 -3 -4 -4 -4 -5 -6 -5 -6 -6 -6 -6 -5 -6 -6 -6 -5 -5 -5 -5 -5 -5 -5 -5 -4 -4 -5 -4 -4 -5
-4 -4 -4 -4 -3 -3 -3 -3 -3 -3 -3 -4 -4 -4 -4 -4 -4 -4 -4 -5 -5 -6 -5 -5 -5 -5 -6 -7 -7 -6 -6 -6 -6 -5 -6 -6 -6 -5 -6 -5 -4 -4 -4 -5 -4
-4 -4 -4 -4 -3 -3 -3 -3 -3 -3 -3 -3 -4 -4 -4 -4 -5 -4 -3 -4 -5 -6 -6 -5 -5 -6 -6 -6 -6 -6 -7 -6 -5 -6 -5 -5 -5 -6 -6 -5 -6 -4 -4 -4 -4
-4 -4 -4 -4 -4 -4 -3 -3 -3 -3 -3 -3 -3 -4 -4 -4 -4 -5 -4 -5 -7 -7 -7 -6 -5 -6 -6 -6 -7 -6 -7 -6 -5 -6 -4 -5 -6 -5 -5 -6 -6 -5 -4 -4 -3
-4 -4 -4 -4 -4 -4 -4 -4 -4 -4 -4 -4 -4 -4 -4 -4 -4 -5 -5 -6 -6 -7 -7 -6 -6 -6 -7 -7 -7 -6 -7 -7 -7 -6 -6 -5 -5 -5 -5 -5 -6 -7 -6 -5 -4
-4 -4 -4 -4 -4 -4 -4 -4 -4 -4 -4 -4 -4 -4 -4 -4 -5 -5 -5 -5 -6 -7 -6 -6 -5 -6 -6 -6 -7 -7 -7 -8 -7 -5 -6 -6 -5 -5 -4 -5 -5 -6 -5 -5 -5
-4 -4 -4 -4 -4 -4 -4 -4 -4 -5 -5 -5 -5 -5 -4 -4 -4 -5 -5 -5 -6 -5 -5 -6 -5 -5 -6 -6 -6 -7 -6 -7 -7 -6 -5 -7 -4 -5 -4 -3 -4 -5 -6 -5 -5
-4 -4 -4 -4 -4 -4 -4 -5 -5 -5 -5 -5 -5 -5 -5 -5 -5 -5 -5 -5 -6 -6 -6 -7 -6 -6 -7 -6 -6 -7 -7 -7 -7 -7 -6 -7 -5 -6 -5 -4 -4 -5 -6 -6 -6
-5 -4 -4 -4 -4 -5 -5 -5 -5 -5 -5 -5 -5 -5 -6 -5 -5 -6 -5 -5 -6 -6 -6 -6 -7 -7 -8 -8 -7 -8 -7 -8 -8 -7 -7 -8 -7 -6 -6 -5 -4 -4 -5 -6 -6
-5 -5 -5 -5 -5 -5 -5 -5 -5 -5 -5 -5 -5 -5 -5 -5 -6 -6 -6 -6 -7 -7 -6 -6 -6 -7 -7 -8 -8 -9 -8 -8 -8 -8 -8 -7 -7 -6 -6 -5 -5 -5 -4 -5 -5
-5 -5 -5 -5 -5 -5 -6 -6 -6 -5 -6 -6 -6 -6 -6 -6 -6 -6 -7 -7 -7 -6 -6 -7 -7 -8 -8 -8 -9 -9 -8 -8 -9 -8 -8 -8 -7 -7 -7 -6 -6 -6 -5 -5 -5
-5 -5 -6 -6 -6 -6 -6 -6 -6 -5 -6 -6 -6 -6 -6 -6 -6 -7 -7 -7 -7 -7 -7 -7 -7 -8 -8 -9 -9 -9 -9 -9 -8 -9 -9 -9 -8 -8 -8 -7 -7 -7 -7 -6 -6
-5 -6 -6 -6 -7 -7 -7 -7 -7 -6 -6 -6 -6 -7 -7 -7 -7 -8 -8 -8 -8 -8 -8 -8 -8 -8 -8 -9 -9 -10 -9 -9 -9 -9 -9 -9 -8 -8 -8 -8 -7 -7 -7 -7 -6
-6 -6 -7 -7 -7 -7 -7 -7 -8 -8 -7 -7 -7 -7 -7 -8 -8 -8 -9 -9 -9 -9 -9 -9 -9 -8 -9 -9 -9 -9 -10 -10 -10 -9 -10 -10 -9 -8 -8 -9 -8 -8 -8 -8 -8
-6 -6 -7 -7 -7 -8 -8 -8 -8 -8 -8 -8 -8 -8 -8 -8 -8 -8 -8 -8 -9 -9 -10 -10 -10 -9 -9 -10 -9 -9 -9 -9 -9 -10 -10 -9 -9 -9 -9 -9 -9 -9 -8 -9 -8
-6 -7 -7 -7 -8 -8 -9 -9 -9 -9 -8 -8 -8 -8 -8 -8 -8 -8 -7 -8 -8 -9 -10 -10 -10 -10 -10 -10 -10 -10 -9 -9 -9 -10 -10 -10 -9 -9 -9 -9 -9 -9 -9 -9 -9
-6 -7 -8 -8 -8 -9 -9 -9 -10 -9 -9 -9 -9 -9 -9 -9 -9 -8 -8 -8 -8 -8 -10 -10 -10 -10 -10 -10 -10 -10 -10 -10 -10 -10 -10 -10 -10 -10 -10 -10 -10 -10 -10 -10 -10
-7 -7 -8 -8 -9 -9 -9 -10 -10 -10 -10 -10 -10 -9 -10 -10 -10 -8 -9 -9 -9 -9 -9 -9 -10 -10 -10 -10 -11 -11 -11 -11 -11 -11 -11 -11 -10 -10 -10 -10 -11 -11 -11 -10 -10
Height
5892 5893 5894 5893 5893 5894 5894 5895 5896 5898 5898 5898 5898 5897 5897 5897 5896 5896 5894 5896 5897 5900 5901 5901 5902 5901 5903 5904 5908 5908 5910 5912 5913 5914 5914 5915 5915 5917 5919 5921 5921 5922 5922 5922 5924
5892 5893 5894 5894 5894 5894 5894 5895 5896 5898 5899 5899 5899 5899 5898 5897 5898 5897 5898 5899 5901 5902 5904 5902 5901 5903 5904 5907 5910 5913 5914 5913 5916 5917 5916 5917 5917 5918 5920 5921 5921 5923 5923 5923 5925
5892 5893 5894 5895 5895 5894 5895 5896 5896 5898 5901 5900 5901 5900 5898 5897 5897 5900 5901 5904 5903 5902 5904 5903 5905 5905 5906 5911 5911 5912 5915 5917 5918 5917 5920 5918 5918 5920 5921 5921 5923 5924 5923 5923 5925
5891 5893 5895 5895 5896 5895 5896 5897 5897 5899 5902 5901 5901 5901 5898 5897 5898 5899 5902 5905 5906 5904 5907 5905 5905 5908 5908 5911 5912 5912 5916 5916 5919 5920 5922 5922 5922 5922 5923 5923 5925 5924 5925 5924 5923
5891 5893 5895 5896 5896 5896 5896 5897 5898 5900 5902 5902 5902 5902 5901 5899 5897 5902 5904 5907 5909 5909 5910 5911 5912 5914 5912 5912 5913 5914 5917 5918 5921 5921 5923 5924 5925 5926 5926 5925 5926 5925 5925 5924 5924
5890 5893 5895 5896 5897 5897 5897 5898 5899 5901 5902 5902 5903 5903 5903 5903 5900 5904 5906 5908 5907 5908 5909 5913 5916 5916 5916 5915 5917 5915 5918 5918 5921 5924 5927 5925 5927 5927 5927 5927 5927 5927 5926 5926 5926
5891 5893 5894 5896 5897 5897 5898 5899 5900 5901 5902 5902 5903 5904 5904 5907 5905 5905 5908 5908 5910 5910 5910 5912 5917 5917 5918 5920 5920 5920 5919 5919 5921 5924 5926 5926 5927 5926 5927 5926 5926 5927 5927 5926 5927
5891 5893 5895 5896 5897 5898 5899 5900 5901 5902 5902 5902 5903 5905 5906 5907 5908 5910 5911 5911 5911 5911 5914 5917 5916 5918 5921 5921 5922 5920 5922 5922 5924 5923 5925 5925 5925 5926 5927 5927 5927 5927 5926 5926 5928
5891 5893 5895 5897 5898 5899 5900 5901 5902 5902 5902 5902 5904 5904 5906 5907 5910 5912 5913 5915 5916 5916 5915 5915 5917 5920 5921 5917 5921 5923 5924 5923 5925 5925 5924 5925 5926 5927 5928 5928 5928 5928 5928 5927 5929
5891 5893 5896 5897 5898 5899 5900 5901 5902 5903 5904 5904 5905 5907 5907 5908 5909 5912 5914 5916 5918 5919 5919 5920 5920 5922 5920 5919 5921 5923 5924 5923 5924 5927 5927 5925 5925 5927 5928 5929 5927 5927 5927 5928 5930
5891 5893 5895 5897 5898 5899 5901 5902 5905 5905 5905 5906 5906 5906 5907 5909 5910 5911 5913 5915 5918 5919 5922 5922 5922 5919 5919 5920 5920 5920 5922 5924 5925 5926 5928 5927 5928 5925 5926 5928 5928 5925 5926 5928 5930
5890 5892 5894 5896 5897 5899 5901 5903 5904 5906 5905 5905 5906 5906 5906 5907 5909 5911 5911 5913 5914 5918 5921 5923 5920 5919 5919 5920 5920 5921 5922 5923 5925 5924 5926 5925 5926 5929 5924 5926 5926 5928 5929 5930 5929
5890 5892 5893 5895 5897 5898 5900 5902 5903 5904 5905 5906 5906 5907 5907 5907 5907 5910 5911 5910 5912 5915 5919 5919 5920 5919 5919 5918 5920 5919 5920 5922 5924 5925 5925 5926 5927 5928 5925 5927 5928 5929 5929 5929 5928
5890 5891 5892 5894 5897 5896 5898 5900 5902 5902 5903 5905 5905 5906 5906 5905 5907 5909 5909 5910 5912 5915 5917 5916 5918 5918 5919 5919 5919 5920 5920 5922 5924 5925 5923 5923 5925 5923 5926 5927 5927 5928 5928 5928 5928
5889 5890 5890 5892 5893 5894 5896 5897 5898 5899 5901 5902 5902 5903 5904 5905 5906 5908 5908 5908 5910 5911 5914 5915 5914 5915 5918 5917 5918 5918 5918 5919 5920 5922 5923 5922 5921 5921 5921 5924 5925 5925 5924 5925 5924
5886 5886 5888 5889 5890 5892 5894 5894 5896 5897 5896 5897 5898 5899 5901 5902 5904 5904 5905 5906 5907 5906 5909 5908 5910 5913 5915 5915 5916 5914 5914 5915 5916 5917 5921 5917 5919 5923 5920 5921 5922 5922 5922 5923 5923
5884 5884 5885 5886 5887 5888 5889 5890 5892 5891 5892 5892 5892 5894 5895 5897 5898 5900 5902 5904 5905 5905 5906 5907 5906 5907 5911 5913 5911 5909 5910 5910 5912 5912 5916 5913 5914 5918 5917 5918 5920 5918 5919 5922 5922
5881 5881 5882 5883 5883 5884 5884 5886 5885 5886 5886 5887 5889 5890 5892 5892 5893 5894 5896 5898 5899 5901 5901 5902 5904 5904 5906 5907 5908 5905 5906 5906 5905 5908 5909 5908 5909 5914 5913 5914 5917 5917 5917 5918 5918
5877 5877 5878 5879 5880 5880 5881 5881 5880 5881 5882 5883 5885 5886 5887 5890 5890 5891 5893 5894 5894 5895 5897 5898 5900 5900 5901 5903 5906 5906 5903 5907 5903 5903 5903 5903 5905 5905 5908 5908 5910 5913 5913 5913 5914
5872 5873 5874 5874 5875 5875 5876 5876 5874 5874 5877 5877 5878 5880 5882 5884 5886 5887 5886 5889 5889 5888 5888 5891 5893 5895 5897 5897 5898 5897 5903 5901 5899 5898 5898 5898 5900 5899 5902 5903 5905 5906 5908 5910 5910
5866 5867 5869 5869 5869 5870 5869 5869 5867 5870 5873 5874 5873 5874 5875 5878 5879 5880 5882 5882 5882 5883 5885 5885 5887 5891 5890 5892 5893 5893 5894 5894 5895 5894 5893 5893 5894 5896 5896 5898 5899 5899 5899 5899 5899
5862 5863 5863 5863 5864 5863 5863 5863 5863 5865 5867 5868 5869 5869 5870 5873 5875 5876 5876 5875 5876 5877 5877 5877 5879 5881 5886 5885 5886 5887 5887 5887 5886 5889 5888 5887 5888 5890 5888 5889 5891 5893 5893 5892 5892
5858 5857 5856 5855 5856 5859 5860 5859 5859 5859 5859 5860 5863 5865 5867 5867 5868 5869 5870 5871 5870 5870 5871 5871 5871 5874 5876 5879 5880 5880 5879 5881 5881 5881 5880 5881 5882 5882 5882 5882 5883 5884 5885 5885 5884
5855 5853 5851 5850 5852 5852 5853 5852 5852 5851 5853 5855 5857 5858 5860 5861 5861 5860 5861 5862 5861 5863 5864 5865 5866 5867 5869 5870 5872 5873 5874 5874 5875 5875 5875 5875 5875 5877 5877 5878 5876 5875 5876 5875 5875
5851 5848 5847 5847 5847 5845 5847 5848 5846 5846 5847 5847 5848 5849 5850 5852 5851 5851 5853 5854 5854 5854 5856 5859 5860 5860 5860 5862 5863 5864 5866 5867 5867 5868 5868 5870 5870 5871 5872 5870 5869 5869 5868 5868 5866
5847 5845 5842 5842 5841 5841 5841 5841 5839 5840 5840 5841 5841 5842 5842 5842 5843 5843 5844 5845 5845 5845 5849 5849 5852 5852 5853 5854 5854 5856 5857 5858 5860 5860 5861 5863 5864 5865 5865 5863 5862 5861 5860 5860 5859
5841 5838 5836 5837 5836 5834 5834 5833 5833 5833 5834 5833 5834 5833 5833 5834 5834 5835 5837 5838 5839 5839 5841 5843 5844 5846 5846 5848 5848 5850 5849 5851 5853 5853 5855 5857 5857 5857 5856 5855 5854 5853 5853 5854 5854
Wind_Speed
8 9 9 8 5 4 4 5 6 8 6 9 10 8 6 5 4 6 7 9 12 11 8 6 22 23 19 17 13 18 16 14 11 16 13 12 13 15 12 10 11 7 6 8 4
9 9 9 9 6 4 4 6 6 8 6 5 6 6 3 1 7 6 7 8 11 10 9 6 17 18 20 15 15 15 16 16 12 16 15 16 18 16 16 13 11 10 6 6 5
11 10 9 10 7 4 4 6 6 6 7 2 3 6 5 1 6 12 6 9 9 9 8 7 8 13 17 17 20 17 14 13 11 17 14 15 14 14 14 11 9 7 7 5 5
11 11 10 11 8 6 5 8 7 6 8 6 2 6 8 5 6 14 9 9 12 9 8 10 11 29 18 18 16 19 17 15 13 16 13 12 12 11 11 12 9 9 6 6 4
12 11 11 11 9 6 7 9 9 7 7 6 2 3 7 12 7 15 14 9 11 10 7 5 7 12 19 14 15 16 15 17 10 16 12 12 12 8 7 7 10 7 8 7 7
12 11 11 11 10 7 7 10 10 9 7 6 4 3 5 12 13 15 13 13 11 7 7 11 15 12 11 10 7 10 13 15 11 14 15 12 10 11 9 7 8 7 7 9 8
12 11 10 10 10 8 7 9 11 10 9 7 5 3 4 9 13 9 15 19 21 18 11 19 15 13 8 4 9 8 9 10 11 7 9 11 8 9 10 8 7 8 7 11 7
12 10 9 8 9 8 8 9 10 10 9 9 6 5 5 9 13 9 14 19 19 15 22 17 16 15 9 4 9 9 4 9 10 11 9 6 8 5 6 8 9 8 8 8 6
11 9 8 7 7 7 7 7 8 9 9 9 8 7 5 9 11 11 13 20 16 14 18 14 20 15 12 4 12 5 1 6 8 8 9 12 11 7 6 7 11 11 12 9 6
11 10 8 6 6 6 7 8 8 8 6 2 2 5 5 5 10 11 12 13 13 11 11 11 15 17 13 19 16 14 8 7 6 7 11 14 14 12 8 6 6 7 9 12 10
11 10 9 8 6 6 6 6 7 7 7 5 2 2 4 4 4 9 14 13 13 9 6 10 12 14 11 16 15 24 2 5 6 5 5 8 7 14 14 12 7 5 1 5 11
10 10 9 8 7 7 6 4 4 5 7 7 8 7 7 3 4 4 5 8 8 11 8 7 6 9 14 15 13 6 5 8 9 15 4 8 16 4 9 11 8 6 4 3 4
9 9 9 9 9 8 7 6 6 6 6 7 8 9 8 8 5 5 8 5 7 6 11 10 3 9 7 12 8 4 3 3 8 4 4 7 8 7 11 12 9 4 1 2 3
11 11 10 10 10 11 10 10 10 10 9 10 9 9 10 11 11 8 11 13 12 16 18 18 12 11 11 10 10 9 6 5 6 1 9 4 4 5 3 5 6 6 4 2 1
12 13 13 14 15 16 15 15 14 13 13 15 15 14 14 13 13 13 16 14 15 20 20 19 17 17 13 11 8 7 9 11 13 7 4 7 10 9 9 3 2 3 7 9 9
11 14 16 17 18 18 17 17 17 16 17 18 17 17 18 19 19 19 17 17 20 23 18 22 19 16 18 17 10 13 16 17 16 13 10 16 17 9 16 10 6 3 4 6 6
9 11 12 14 16 17 18 19 18 21 22 23 22 21 21 20 21 20 21 19 18 20 17 21 21 18 20 17 19 17 18 21 24 23 21 21 23 12 15 15 12 12 12 13 15
10 11 13 13 15 15 16 16 18 21 22 23 21 21 20 21 20 20 22 20 22 22 20 22 21 22 25 23 21 25 25 23 29 31 26 26 24 18 18 18 16 16 15 17 16
17 15 14 13 14 16 17 17 22 23 23 23 22 23 21 17 17 18 19 18 14 17 20 22 20 23 28 34 27 31 32 25 27 31 32 31 30 28 26 26 25 21 22 21 21
21 21 19 17 15 16 17 18 23 27 25 26 24 24 23 20 20 17 17 16 20 25 25 21 17 16 20 28 32 35 27 24 29 25 26 32 33 37 35 32 28 26 22 24 26
18 21 21 21 21 20 20 22 28 28 27 28 30 29 29 24 23 24 22 23 24 25 23 23 24 17 20 30 35 36 27 31 29 27 28 28 29 28 33 37 35 30 29 26 30
14 16 20 22 22 23 24 25 28 27 27 29 31 32 31 28 28 28 27 28 28 29 29 30 27 24 20 25 33 29 29 31 32 26 28 32 34 29 34 36 37 37 34 35 33
14 13 15 21 22 22 23 25 25 27 28 30 30 30 30 30 32 32 33 34 35 35 34 33 34 31 26 25 25 39 32 31 31 33 30 27 30 29 35 38 38 34 32 30 36
15 15 16 19 20 22 21 23 26 29 30 29 28 28 28 29 33 35 34 34 40 40 40 38 35 35 34 31 30 31 39 37 35 34 34 30 30 29 32 38 39 36 35 34 35
17 17 18 17 17 21 21 22 24 25 26 27 28 29 29 26 28 31 32 31 35 42 45 42 39 37 37 38 40 36 36 41 43 38 38 34 32 33 31 36 40 40 40 40 39
19 18 20 19 18 20 20 21 24 25 27 28 29 29 31 28 28 28 28 27 29 34 44 48 43 42 40 38 39 36 37 35 40 38 35 34 34 35 40 43 41 41 38 38 38
19 19 19 17 18 21 21 23 24 25 25 25 24 29 27 27 32 33 25 23 27 30 33 41 49 50 49 46 42 35 33 35 34 36 33 32 32 33 36 37 33 33 37 43 47
Wind_Direction
165 152 145 143 146 157 139 133 158 166 110 76 97 83 92 135 137 117 129 129 120 121 120 146 144 136 139 142 132 130 115 118 92 93 105 123 120 121 123 107 97 90 73 99 106
176 164 150 146 145 144 139 144 166 175 166 75 83 77 74 162 183 175 137 122 98 118 129 170 155 126 133 134 135 135 141 116 112 107 109 113 117 120 132 130 122 118 114 88 86
182 171 158 144 147 149 132 138 156 174 176 163 100 46 51 61 208 186 136 113 119 118 108 145 148 135 133 144 135 153 113 109 101 102 118 123 127 132 132 122 121 117 131 119 105
181 173 160 144 144 148 133 141 145 155 155 169 145 53 43 49 179 191 148 134 136 133 119 118 155 150 140 143 159 128 127 113 115 104 119 121 123 118 120 125 123 115 111 113 106
179 176 165 149 146 145 138 141 148 151 155 174 178 76 53 53 92 150 150 124 124 136 147 127 137 127 145 146 131 135 135 122 108 107 119 120 111 115 118 112 115 121 119 124 131
176 176 168 156 148 144 141 141 152 150 157 177 169 127 74 69 83 143 137 127 130 138 144 154 149 155 149 142 142 141 126 121 117 110 131 129 139 143 137 130 122 127 130 124 120
176 173 173 164 158 150 141 142 152 154 160 186 191 152 127 94 88 118 133 129 106 82 114 124 127 101 156 127 164 137 146 112 101 101 114 130 142 133 144 139 128 131 139 132 114
173 170 174 177 165 163 146 143 144 155 167 181 185 166 135 113 115 127 124 118 119 111 108 117 106 88 94 267 249 81 128 131 135 139 126 81 132 136 149 146 144 149 136 136 136
173 170 171 179 168 173 157 151 146 153 160 178 179 176 145 131 122 139 141 134 129 108 101 101 120 111 76 124 156 172 207 140 135 117 106 98 96 109 118 146 153 159 152 142 160
176 175 172 172 168 174 171 172 163 162 173 163 150 170 170 175 146 139 160 140 137 128 121 123 102 96 84 93 172 197 107 97 98 102 101 120 113 95 74 75 112 175 159 147 161
187 187 183 178 172 174 189 186 181 176 160 153 294 269 185 173 203 167 175 158 145 138 175 141 131 106 96 92 123 199 57 349 334 205 18 80 59 93 77 58 65 66 99 181 164
185 196 196 192 194 188 187 190 198 193 187 192 181 228 256 223 217 249 224 190 160 157 224 191 177 129 133 109 92 52 11 352 10 352 358 46 69 44 49 65 37 44 85 142 155
183 194 196 198 211 216 202 191 202 203 216 208 207 215 239 249 246 240 240 190 189 202 221 245 199 159 140 144 146 164 302 321 320 19 106 106 83 79 80 68 44 12 11 51 30
213 214 218 220 222 228 227 222 220 221 227 228 222 210 222 234 244 243 228 217 217 210 218 239 233 187 177 183 190 232 233 292 313 112 131 46 24 6 82 117 88 343 279 242 311
240 240 238 236 237 236 234 234 233 234 230 243 236 229 225 228 237 234 240 231 233 234 231 239 253 263 223 215 236 233 264 268 272 268 258 270 266 295 283 236 285 301 293 267 274
244 244 244 246 246 247 248 250 249 246 246 241 240 238 236 236 231 236 236 236 226 235 249 236 243 234 223 237 221 264 261 266 280 279 260 273 257 271 263 236 231 277 326 273 278
260 248 244 245 247 246 246 244 245 242 244 244 240 238 236 238 242 240 238 238 247 247 248 240 255 254 251 243 248 247 269 274 265 265 272 279 266 255 247 248 243 232 237 264 269
267 261 258 251 251 248 247 248 246 248 244 246 253 250 237 238 236 237 240 240 243 241 237 244 235 249 253 250 247 246 232 246 266 271 270 269 272 241 245 244 236 253 251 255 268
273 270 267 258 251 249 248 245 248 250 249 251 248 250 252 242 245 250 246 235 228 246 245 242 244 227 237 242 231 230 239 244 247 252 253 254 256 261 256 261 262 246 246 252 262
268 264 269 264 259 250 246 240 243 248 251 256 258 259 261 262 262 259 262 253 239 244 245 233 234 232 228 240 246 246 241 248 244 254 249 247 251 258 261 264 256 259 262 265 257
283 266 256 257 259 252 244 236 238 245 249 251 259 262 264 265 266 269 263 264 262 269 264 261 260 214 222 229 232 247 252 244 247 248 258 260 259 260 262 262 267 268 266 267 263
303 283 266 258 255 250 249 251 253 256 258 254 249 256 260 265 267 264 262 265 263 268 272 271 271 264 232 221 230 248 243 246 245 245 249 251 261 255 261 265 267 268 268 273 274
305 287 271 260 260 264 262 258 257 259 255 256 258 259 256 258 260 257 256 254 256 260 261 263 263 268 258 253 246 238 239 242 251 251 252 256 257 257 256 259 264 266 267 268 266
308 295 283 273 265 260 256 256 259 261 262 265 266 267 262 257 256 254 255 251 249 250 253 254 256 260 259 253 253 248 243 247 249 255 251 251 251 253 257 262 267 268 268 266 263
307 296 288 287 275 268 262 257 255 257 259 260 260 259 261 262 256 253 253 252 251 245 243 246 249 254 257 257 258 257 256 252 254 263 257 257 254 253 254 262 265 268 270 273 276
305 295 286 286 281 271 264 258 256 256 259 264 265 264 260 257 261 256 256 249 246 248 238 246 249 251 254 259 257 255 258 253 255 264 257 252 250 254 258 269 267 268 273 273 277
307 297 290 288 281 271 265 264 264 266 268 274 278 270 265 258 257 257 261 243 242 246 243 241 247 251 254 257 258 251 245 250 251 255 253 254 255 260 263 261 259 260 261 266 273